FW1241 Weather Reports


Display with metric or nautical units.
time (UTC)temp
F
wind
direction
speed
MPH
gust
MPH
rain 1hr
in
rain 24hr
in
rain mn
in
humidity
%
barometer
mb
20260505052604 59 317 0.0 1.0 0.00 0.00 0.00 74 1013.2
20260505051605 59 326 0.0 1.0 0.00 0.00 0.00 73 1013.2
20260505051105 59 349 0.0 0.0 0.00 0.00 0.00 73 1013.1
20260505041605 61 343 0.0 0.0 0.00 0.00 0.00 68 1013.2
20260505035105 61 310 0.0 1.0 0.00 0.00 0.00 68 1013.0
20260505034604 61 328 0.0 0.0 0.00 0.00 0.00 68 1012.9
20260505033605 61 329 0.0 0.0 0.00 0.00 0.00 68 1012.8
20260505033105 61 329 0.0 1.0 0.00 0.00 0.00 67 1012.7
20260505032105 61 330 0.0 1.0 0.00 0.00 0.00 67 1012.7
20260505031104 61 330 0.0 0.0 0.00 0.00 0.00 67 1012.6
20260505030105 62 332 0.0 1.0 0.00 0.00 0.00 66 1012.4
20260505025104 62 335 0.0 1.0 0.00 0.00 0.00 63 1012.3
20260505024604 63 334 0.0 0.0 0.00 0.00 0.00 62 1012.2
20260505024105 63 334 0.0 0.0 0.00 0.00 0.00 61 1012.2
20260505021104 64 301 1.0 3.0 0.00 0.00 0.00 56 1012.2
20260505014104 65 325 1.0 3.0 0.00 0.00 0.00 56 1012.5
20260505013104 65 302 0.0 3.0 0.00 0.00 0.00 60 1012.7
20260505012104 64 260 0.0 1.0 0.00 0.00 0.00 60 1012.7
20260505011604 64 324 1.0 3.0 0.00 0.00 0.00 59 1012.8
20260505010105 65 313 1.0 3.0 0.00 0.00 0.00 59 1012.8
20260505005605 65 299 1.0 5.0 0.00 0.00 0.00 58 1012.9
20260505003605 65 324 0.0 5.0 0.00 0.00 0.00 59 1013.0
20260505002605 65 320 0.0 3.0 0.00 0.00 0.00 59 1013.0
20260505000106 64 297 1.0 3.0 0.00 0.00 0.00 59 1013.1
20260504235105 64 308 1.0 5.0 0.00 0.00 0.00 59 1013.2
20260504234604 65 307 1.0 3.0 0.00 0.00 0.00 59 1013.2
20260504233605 64 325 2.0 5.0 0.00 0.00 0.00 59 1013.3
20260504232605 64 308 1.0 3.0 0.00 0.00 0.00 59 1013.4
20260504231105 64 345 0.0 3.0 0.00 0.00 0.00 60 1013.7
20260504230605 64 301 1.0 2.0 0.00 0.00 0.00 60 1013.7
20260504230105 63 318 1.0 2.0 0.00 0.00 0.00 60 1013.7
20260504225604 63 317 1.0 3.0 0.00 0.00 0.00 59 1013.8
20260504225105 63 290 0.0 3.0 0.00 0.00 0.00 59 1013.8
20260504224604 63 308 1.0 3.0 0.00 0.00 0.00 60 1013.9
20260504223605 63 283 0.0 2.0 0.00 0.00 0.00 59 1014.0
20260504223106 63 296 0.0 2.0 0.00 0.00 0.00 59 1014.1
20260504222604 63 300 0.0 2.0 0.00 0.00 0.00 59 1014.2
20260504221604 63 298 0.0 2.0 0.00 0.00 0.00 59 1014.2
20260504221104 63 323 1.0 2.0 0.00 0.00 0.00 60 1014.3
20260504215604 63 103 0.0 1.0 0.00 0.00 0.00 62 1014.5
20260504215104 63 37 0.0 2.0 0.00 0.00 0.00 61 1014.6
20260504214605 63 342 1.0 2.0 0.00 0.00 0.00 59 1014.6
20260504214105 63 291 0.0 2.0 0.00 0.00 0.00 60 1014.7
20260504212605 63 12 0.0 2.0 0.00 0.00 0.00 61 1014.9
20260504205605 62 308 0.0 3.0 0.00 0.00 0.00 62 1015.1
20260504205105 62 307 1.0 2.0 0.00 0.00 0.00 62 1015.3
20260504204605 62 300 1.0 3.0 0.00 0.00 0.00 62 1015.2
20260504204104 62 92 0.0 1.0 0.00 0.00 0.00 63 1015.2
20260504203604 62 88 0.0 2.0 0.00 0.00 0.00 63 1015.2
20260504202605 62 304 1.0 2.0 0.00 0.00 0.00 63 1015.2
20260504202104 62 292 0.0 3.0 0.00 0.00 0.00 63 1015.2
20260504201604 62 330 0.0 3.0 0.00 0.00 0.00 64 1015.2
20260504200104 62 310 1.0 2.0 0.00 0.00 0.00 64 1015.2
20260504195605 61 313 0.0 3.0 0.00 0.00 0.00 66 1015.3
20260504194605 62 294 1.0 3.0 0.00 0.00 0.00 63 1015.3
20260504193604 62 285 1.0 3.0 0.00 0.00 0.00 64 1015.2
20260504192605 61 297 0.0 1.0 0.00 0.00 0.00 66 1015.2
20260504191105 61 113 0.0 3.0 0.00 0.00 0.00 65 1015.3
20260504190605 61 305 0.0 2.0 0.00 0.00 0.00 65 1015.3
20260504190105 60 288 1.0 5.0 0.00 0.00 0.00 65 1015.3
20260504185604 60 310 1.0 3.0 0.00 0.00 0.00 64 1015.4
20260504185105 60 298 0.0 2.0 0.00 0.00 0.00 65 1015.5
20260504184104 60 310 0.0 1.0 0.00 0.00 0.00 67 1015.6
20260504183605 60 313 0.0 2.0 0.00 0.00 0.00 67 1015.6
20260504182605 60 306 0.0 3.0 0.00 0.00 0.00 67 1015.7
20260504182105 60 300 0.0 1.0 0.00 0.00 0.00 68 1015.7
20260504174605 59 114 0.0 1.0 0.00 0.00 0.00 69 1015.4
20260504172105 59 308 1.0 1.0 0.00 0.00 0.00 69 1015.3
20260504171105 59 331 0.0 2.0 0.00 0.00 0.00 71 1015.3
20260504170605 59 333 0.0 1.0 0.00 0.00 0.00 69 1015.3
20260504170105 58 329 0.0 2.0 0.00 0.00 0.00 69 1015.3
20260504151105 57 83 2.0 7.0 0.00 0.00 0.00 75 1014.8
20260504141104 58 317 1.0 3.0 0.00 0.00 0.00 72 1014.7
20260504140105 58 79 0.0 0.0 0.00 0.00 0.00 73 1014.6
20260504130605 58 335 0.0 2.0 0.00 0.00 0.00 73 1014.0
20260504120105 58 183 0.0 0.0 0.00 0.00 0.00 71 1013.6
20260504110604 58 210 0.0 1.0 0.00 0.00 0.00 68 1013.6
20260504100605 58 191 0.0 0.0 0.00 0.00 0.00 68 1013.2
20260504100105 58 193 0.0 1.0 0.00 0.00 0.00 68 1013.2
20260504081605 59 183 0.0 3.0 0.00 0.00 0.00 64 1013.6
20260504080605 60 185 1.0 3.0 0.00 0.00 0.00 64 1013.6
20260504080105 60 186 0.0 3.0 0.00 0.00 0.00 63 1013.5
20260504060105 62 177 1.0 5.0 0.00 0.00 0.00 58 1012.7